Regional Weather Roundup
Issued by NWS

Home | Current Version | Previous Version | Graphics & Text | Print | Product List | Glossary On
Versions: 1 2 3 4 5 6 7 8 9 10 11 12 13 14 15 16 17 18 19 20 21 22 23 24 25 26 27 28 29 30 31 32 33 34 35 36 37 38 39 40 41 42 43 44 45 46 47 48 49 50
000
ASUS45 KCYS 251010
RWRWY

WYOMING REGIONAL WEATHER ROUNDUP
NATIONAL WEATHER SERVICE CHEYENNE WY
400 AM MDT MON MAY 25 2015

NOTE:  "FAIR" INDICATES FEW OR NO CLOUDS BELOW 12,000 FEET
WITH NO SIGNIFICANT WEATHER AND/OR OBSTRUCTIONS TO VISIBILITY.

WYZ001-251100-
YELLOWSTONE NATIONAL PARK

CITY           SKY/WX    TMP DP  RH WIND       PRES   REMARKS
LK YELLOWSTONE   N/A     30  28  92 NW3       30.03F
W YELLOWSTONE  NOT AVBL

$$
WYZ002>013-054>058-071-098>099-251100-
NORTHERN WYOMING

CITY           SKY/WX    TMP DP  RH WIND       PRES   REMARKS
JACKSON        CLOUDY    43  37  81 N3        29.97S
CODY           CLOUDY    48  43  81 N5        29.95S
GREYBULL       LGT RAIN  49  48  97 CALM      29.89S
WORLAND        CLOUDY    50  47  89 NW6       29.90S
SHERIDAN       CLOUDY    49  47  93 CALM      29.92S
BUFFALO        CLOUDY    46  45  96 NW9       29.93S
GILLETTE       CLOUDY    49  48  97 NW5       29.88F FOG
HULETT         FOG       50  50 100 N3        29.88S VSB 1/4
NEWCASTLE      CLOUDY    46  46 100 CALM      29.86S

$$
WYZ014>020-022>026-101>103-251100-
CENTRAL WYOMING

CITY           SKY/WX    TMP DP  RH WIND       PRES   REMARKS
BIG PINEY      CLOUDY    42  39  89 SW3       29.99S
PINEDALE       CLOUDY    41  39  93 CALM      30.01R
DUBOIS         CLOUDY    39  36  87 NW3       29.97F
LANDER         LGT RAIN  45  43  93 SW5       29.95S
RIVERTON       LGT RAIN  45  43  93 W9        29.96S
CASPER         CLOUDY    44  42  93 NW8       29.92S
DOUGLAS        CLOUDY    48  46  93 NW9       29.89R

$$
WYZ021-027>030-104>119-251100-
SOUTHERN WYOMING

CITY           SKY/WX    TMP DP  RH WIND       PRES   REMARKS
EVANSTON       CLOUDY    42  40  92 SW8       29.99R
KEMMERER       CLOUDY    41  39  93 CALM      30.00S
FORT BRIDGER   CLOUDY    43  43 100 W6        30.02R
ROCK SPRINGS   CLOUDY    41  38  89 SE3       29.98S
DIXON          CLOUDY    42  39  90 CALM      30.00R
RAWLINS        CLOUDY    42  39  89 SW10      29.95S
SARATOGA       CLOUDY    37  36  93 CALM      29.97S
LARAMIE        CLOUDY    38  35  89 CALM      29.92S
CHEYENNE       LGT RAIN  44  41  89 NW9       29.87F
TORRINGTON     LGT RAIN  50  49  96 NW7       29.83S
PINE BLUFFS    DRIZZLE   45  45 100 NW12      29.86S

$$



USA.gov is the U.S. government's official web portal to all federal, state and local government web resources and services.